Location: Champs
(48.8539°N, 2.6040°E)
Time: 12:47:50
(UTC+00:00)

Cosmos 1538 Rocket - Pass Details

Date: 01 June 2022
Orbit: 752 x 791 km, 74.0° (Epoch: 28 June)

Event Time Altitude Azimuth Distance (km) Brightness Sun altitude
Rises 21:01:35 0° 332° (NNW) 3,245 9.2 -9.9°
Reaches altitude 10° 21:04:03 10° 326° (NNW) 2,308 8.1 -10.2°
Maximum altitude 21:09:01 46° 255° (WSW) 1,018 4.8 -10.7°
Drops below altitude 10° 21:13:55 10° 183° (S) 2,274 6.0 -11.2°
Enters shadow 21:14:20 - 182° (S) 2,430 6.1 -11.2°
